Regional Weather Roundup
Issued by NWS

Home | Current Version | Previous Version | Graphics & Text | Print | Product List | Glossary On
Versions: 1 2 3 4 5 6 7 8 9 10 11 12 13 14 15 16 17 18 19 20 21 22 23 24 25 26 27 28 29 30 31 32 33 34 35 36 37 38 39 40 41 42 43 44 45 46 47 48 49 50
000
ASUS45 KTFX 130304
RWRMT
MONTANA HOURLY WEATHER ROUNDUP
NATIONAL WEATHER SERVICE GREAT FALLS MT
904 PM MDT SAT JUL 12 2014

NOTE: "FAIR" INDICATES FEW OR NO CLOUDS BELOW 12000 FEET WITH NO
SIGNIFICANT WEATHER AND/OR OBSTRUCTIONS TO VISIBILITY.

* THESE STATIONS ARE NOT UNDER NWS QUALITY CONTROL. THEY DO NOT
   REPORT WEATHER SUCH AS PRECIPITATION OR FOG.

MTZ001>007-043-130400-
WEST OF THE DIVIDE
CITY           SKY/WX    TMP DP  RH WIND       PRES   REMARKS
KALISPELL      CLEAR     81  54  39 CALM      30.13S
MISSOULA       CLEAR     84  41  22 N8        30.14R
BUTTE          MOCLDY    75  48  39 W3        30.31S
MULLAN PASS    PTCLDY    72  37  28 N5        30.35S
* ESSEX        N/A       70  49  47 S1         N/A
* LINCOLN      N/A       83  41  23 NE5G15     N/A
* LOOKOUT PASS N/A       72  50  46 N/A        N/A
* POLSON       N/A       73  45  37 N/A        N/A
* RONAN APT    PTCLDY    79  57  47 N/A        N/A
* SEELEY LAKE  N/A       85  42  22 NW5G13     N/A
* THOMP F APT  PTCLDY    69  47  46 N6G13      N/A
* YAAK HILL    N/A       85  51  31 SW1        N/A
$$

MTZ008-052>055-130400-
SOUTHWEST MONTANA
CITY           SKY/WX    TMP DP  RH WIND       PRES   REMARKS
W YELLOWSTONE  CLOUDY    64  57  78 CALM      30.39F
* THREE FORKS  CLOUDY    79  54  42 N/A        N/A
* BOULDER HILL N/A       75  45  34 SW6        N/A
* MONIDA PASS  N/A       70  48  46 N4         N/A
* RAYNOLDS PAS N/A       62  12  14 NE4        N/A
* WHITEHALL    N/A       79  52  39 N4         N/A
* WISE RIVER   N/A       75  58  56 NW3        N/A
$$

MTZ009>010-012-014-046-048-049-054-130400-
EAST SLOPES AND CENTRAL MONTANA
CITY           SKY/WX    TMP DP  RH WIND       PRES   REMARKS
CUT BANK       CLEAR     75  54  48 NE10      30.23R
GREAT FALLS    CLEAR     79  41  26 E5        30.20R
HELENA         PTCLDY    84  48  29 NE6       30.17R
* CONRAD       CLEAR     82  52  35 N/A        N/A
* DEARBORN     N/A       84  38  19 N9G14      N/A
* MONARCH      N/A       69  32  25 NE7        N/A
* PENDROY      N/A       77  44  31 NE3        N/A
* ROGERS PASS  N/A       67  41  39 NE1        N/A
* SAINT MARY   N/A       79  52  39 NE3G10     N/A
* SWEET GRASS  N/A       72  53  51 NE8        N/A
$$

MTZ011-013-016-021-035-040-045-047-050-051-130400-
NORTH CENTRAL MONTANA
CITY           SKY/WX    TMP DP  RH WIND       PRES   REMARKS
LEWISTOWN      CLEAR     79  39  24 CALM      30.25R
* CHESTER      N/A       81  43  26 NE9        N/A
* DENTON       N/A       77  40  27 N6         N/A
* GEYSER       N/A       77  34  21 NE5        N/A
* JUDITH GAP   N/A       75  43  32 N/A        N/A
* LOMA         N/A       77  50  39 NE9        N/A
$$

MTZ017>020-022>027-061-062-130400-
NORTHEAST MONTANA
CITY           SKY/WX    TMP DP  RH WIND       PRES   REMARKS
GLENDIVE       CLEAR     72  46  40 NW7       30.16R
JORDAN         CLEAR     73  43  34 N6        30.17R
SIDNEY         CLEAR     70  48  46 W7        30.13R
WOLF POINT     CLEAR     73  46  38 NW7       30.13R
* BEAVER HILL  N/A       69  48  47 NW8        N/A
* CIRCLE       N/A       75  52  45 N/A        N/A
* LINDSAY DVD  N/A       67  49  53 NW9        N/A
* NAVAJO       N/A       66  54  65 NW8        N/A
$$

MTZ028>042-056>058-130400-
SOUTHCENTRAL AND SOUTHEAST MONTANA
CITY           SKY/WX    TMP DP  RH WIND       PRES   REMARKS
BAKER          CLEAR     70  54  57 W5        30.17R
BILLINGS       CLOUDY    81  43  26 E7        30.20S
MILES CITY     CLEAR     73  48  41 N8        30.17R
* LAUREL APT   MOCLDY    79  46  31 N/A        N/A
* ROUNDUP APT  PTCLDY    81  46  29 N/A        N/A
* ALZADA       N/A       71  49  46 NW6        N/A
* HYSHAM       N/A       76  41  29 NE2        N/A
* LAME DEER    N/A       72  43  35 VRB6       N/A
* REED POINT   N/A       81  47  30 E8         N/A
* ROSCOE HILL  N/A       70  42  36 SE6        N/A
$$

REGIONAL REPORTS...DAKOTAS
CITY           SKY/WX    TMP DP  RH WIND       PRES   REMARKS
WILLISTON      PTCLDY    72  54  53 NW8       30.09R
DICKINSON      CLEAR     68  50  53 N8        30.10R
CROSBY         N/A       63  59  87 N8        30.08R
WATFORD CITY   PTCLDY    66  52  61 NW6       30.08R
BISMARCK       CLEAR     73  54  51 NW7       30.04R
GRAND FORKS    MOCLDY    59  55  87 NW6       29.94R
FARGO          MOCLDY    66  54  65 N10       29.95R
BUFFALO SD     CLEAR     72  50  46 N15       30.10R
RAPID CITY     PTCLDY    70  64  81 W6        30.17R
$$

REGIONAL REPORTS...WYOMING/IDAHO/WASHINGTON
CITY           SKY/WX    TMP DP  RH WIND       PRES   REMARKS
GILLETTE       PTCLDY    72  48  43 NE6       30.26R
SHERIDAN       MOCLDY    72  55  55 W9        30.24R
CODY           CLOUDY    70  54  57 W3        30.31F
SALMON         PTCLDY    79  54  42 CALM      30.13S
MULLAN PASS    PTCLDY    72  37  28 N5        30.35S
SAND POINT     PTCLDY    73  55  53 CALM      30.08R
SPOKANE        FAIR      91  34  13 E3        30.10R

$$




USA.gov is the U.S. government's official web portal to all federal, state and local government web resources and services.